Погода в Орхусе

Дания     56°09′17″N   10°12′44″E
темп.,
°C
ветер,
м/с
пор.,
м/с
влажн.,
%
обл.,
%
осадки,
мм/ч
давл.,
гПа
погр.,
м
11 мая, вт
вт1123:00+11ююз2385100 0.0 101067
02:00+10юз2385100 0.0 101174
05:00+10ю1180100 0.0 101112
08:00+10ююв3693100 0.4 1013263
11:00+12с2383100 1.2 1012286
14:00+12св3677100 1.2 1012357
17:00+12ссв4876100 0.0 1011408
20:00+9ссв51291100 0.6 1010505
12 мая, ср
ср1223:00+9ссз51297100 4.3 1009590
02:00+10с61396100 5.4 1007475
05:00+10ссз51197100 0.0 1006532
08:00+10сз4896100 0.0 1007481
11:00+10сз4895100 0.0 1007461
14:00+11сз5890100 0.1 1008622
17:00+12сз5881100 0.1 1009835
20:00+11ссз498289 0.1 1010759
13 мая, чт
чт1323:00+10сз2788100 0.0 1010250
02:00+8сз369050 0.0 1010145
05:00+7сз3786100 0.0 1009165
08:00+10ссз367383 0.0 1008236
11:00+12с3572100 0.0 1008419
14:00+14ссв3573100 0.0 1007524
17:00+13ссв358298 0.0 1006361
20:00+12св239140 0.1 1006169
14 мая, пт
пт1423:00+10в119854 0.0 100623
02:00+9ссв009875 0.0 100611
05:00+9ссв119811 0.0 100610
08:00+12св118530 0.0 1006145
11:00+15св1276100 0.0 1006512
14:00+16с1279100 0.3 1006611
17:00+15ссз2284100 1.6 1006507
20:00+14св1289100 3.0 100543
15 мая, сб
сб1523:00+11вюв1195100 0.1 100611
02:00+10ссв2295100 0.1 100555
05:00+10св2697100 0.4 1005224
08:00+10с3698100 2.4 1005291
11:00+14св348068 0.2 1005807
14:00+14в337498 0.9 1006902
17:00+14всв346998 0.4 1005888
20:00+12вюв2382100 0.5 1006173